Showing default

COSMOS 2170, 21784

Orbit data source: Space-Track

COSMOS 2170, 21784 is a payload satellite owned by UNKS RF (CIS) in LEO that was launched on Tue, 12 Nov 1991 UTC via a TSIKLON-3 launch vehicle from the Plesetsk Missile And Space Complex (PKMTR). Payload-class satellites include a variety of spacecraft equipped with specific instruments for various scientific and technological missions. These include communications satellites like Starlink; space stations such as the ISS; scientific satellites like the Hubble; Earth observation satellites from companies like Planet Labs, Umbra, and HawkEye 360; GPS; miniature CubeSats for education and research; and military/defense satellites.

Loading next visibility...
Identifier
21784, 1991-077F
Orbit
LEO
Country
Flag of CISCIS
Related business
Manufacturer
NPO PM
Mission
Defense Communications
Bus & Motor
STRELA-3, Unknown motor
Mass
225 kg wet, 225 kg dry
Launch date (UTC)
1991-11-12 (34 years ago)
Launch vehicle
TSIKLON-3
Launch site
Plesetsk Missile And Space Complex (PKMTR)
Object type
Payload
Rocket body
Debris
Shape & HBR
Cyl, 0.8 m
Radar Cross Section
1.257 m², Medium (>0.1 m² and < 1m²)

Expand to show TLE details & history
Last TLE update: 1 day ago

TLE from 1 day ago
0 COSMOS 2170
1 21784U 91077F   26125.50915164  .00000022  00000-0  62780-4 0  9994
2 21784  82.6057 296.2082 0003062  47.6560   7.2704 12.62586803588697
Epoch: 2026-05-05T12:13Z
TLE epoch observation values (Epoch: 2026-05-05T12:13:10.701Z)
Latitude
54.34964°
Longitude
-100.09727°
Altitude
1,418.812 km
Speed
7.157 km/s
True Right ascension
20h 26m 19s
True Declination
54° 12' 02"
Sunlit
Object was in daylight at epoch
Visualization orbit readout
Latitude
Unknown
Longitude
Unknown
Altitude
Unknown
Speed
Unknown
Apparent Right ascension
Unknown
Apparent Declination
Unknown
Sunlit
N/A
Visualization observer readout
Local Sidereal Time
22:20:07
Azimuth
Unknown
Elevation
Unknown
Doppler factor
Unknown
Orbital elements
Apogee altitude
1,411.989 km
Perigee altitude
1,407.22 km
Semi-major axis
7,787.742 km
Eccentricity
0.00031
Inclination
82.6057°
RAAN
296.2082°
Arg. of periapsis
47.656°
True anomaly
7.27484°
Mean anomaly
7.2704°
Eccentric anomaly
7.27262°
Mean motion
3.1581 °/min
Orbital period
113.99 mins
BSTAR
0.00006278
Loading maneuver chart data...
Computing Atmospheric mass density...
Loading historical data...
Loading historical data...
Loading historical data...
Loading historical data...
Loading historical data...
Loading historical data...
Loading historical data...

Documentation

Showing up to 5 results
|